Regional Weather Roundup
Issued by NWS

Home | Current Version | Previous Version | Graphics & Text | Print | Product List | Glossary On
Versions: 1 2 3 4 5 6 7 8 9 10 11 12 13 14 15 16 17 18 19 20 21 22 23 24 25 26 27 28 29 30 31 32 33 34 35 36 37 38 39 40 41 42 43 44 45 46 47 48 49 50
000
ASUS43 KLOT 062300
RWRIL

ILLINOIS REGIONAL WEATHER ROUNDUP
NATIONAL WEATHER SERVICE CHICAGO/ROMEOVILLE IL
600 PM CDT MON JUL 06 2015

NOTE: "FAIR" INDICATES FEW OR NO CLOUDS BELOW 12,000 FEET WITH NO
SIGNIFICANT WEATHER AND/OR OBSTRUCTIONS TO VISIBILITY.

* THESE STATIONS ARE NOT UNDER NWS QUALITY CONTROL. THEY ALSO MAY NOT
  REPORT WEATHER SUCH AS PRECIPITATION OR FOG.

ILZ001-002-007-009-015-016-024-070000-
NORTHWEST ILLINOIS

CITY           SKY/WX    TMP DP  RH WIND       PRES   REMARKS
MOLINE         CLOUDY    72  68  87 E9        29.81F
STERLING*      CLOUDY    75  73  94 E6        29.84F THUNDER
$$

ILZ003-004-008-010-011-017-018-070000-
NORTH CENTRAL ILLINOIS

CITY           SKY/WX    TMP DP  RH WIND       PRES   REMARKS
ROCKFORD       CLOUDY    79  74  84 S10       29.84F HX  82
$$

ILZ005-006-012>014-019>023-070000-
NORTHEAST ILLINOIS

CITY           SKY/WX    TMP DP  RH WIND       PRES   REMARKS
CHICAGO-OHARE  PTSUNNY   81  72  74 S14       29.85F HX  85
CHICAGO-MIDWAY PTSUNNY   82  68  62 SE13      29.86F HX  85
AURORA         PTSUNNY   82  71  69 S9        29.85F HX  86
LANSING*       CLOUDY    79  67  66 S9        29.88F HX  81
WAUKEGAN       PTSUNNY   79  72  79 VRB6      29.84F HX  82
DUPAGE AIRPORT PTSUNNY   81  72  74 S14       29.85F HX  85
WHEELING       PTSUNNY   82  70  66 S16       29.86S HX  86
NORTHERLY ISL    N/A     74  68  81 SE6         N/A
$$

LMZ740>746-070000-
SOUTHERN LAKE MICHIGAN

STATION/POSITION SKY/WX   TEMP    WIND        PRES    VSBY  WAVE
                          AIR SEA DIR/SP/G                  HT/PER
                          (F)     (DEG/KT/KT) (MB)    (MI)  (FT/S)
HARRISON CRIB              76     160/ 13/ 16   N/A
BURNHAM HARBOR             75     160/  6/ 10   N/A
CALUMET HARBOR             76     130/  6/  8   N/A
BURNS HARBOR               71     290/ 19     1013.2F
MICHIGAN CITY              78     310/  6/  9   N/A
MICHIGAN CITY 6N           76 68  170/  2/  4   N/A           1/ 2
ST. JOSEPH                 73 66  230/  8/ 10   N/A           1/ 3
$$

ILZ025>027-034>036-040-047-049-050-058-095>099-070000-
WEST-CENTRAL ILLINOIS

CITY           SKY/WX    TMP DP  RH WIND       PRES   REMARKS
QUINCY         PTSUNNY   85  74  69 S9        29.84S HX  92
MACOMB*        PTSUNNY   84  74  73 S12G17    29.84F HX  91
$$

ILZ028>032-037-038-041>044-048-051>054-059>061-070000-
CENTRAL ILLINOIS

CITY           SKY/WX    TMP DP  RH WIND       PRES   REMARKS
DECATUR        PTSUNNY   83  70  64 S14       29.91S HX  87
PEORIA         PTSUNNY   86  74  67 S13       29.84F HX  94
SPRINGFIELD    PTSUNNY   86  74  67 S15       29.87F HX  94
TAYLORVILLE    NOT AVBL
$$

ILZ033-039-045-046-055>057-062-063-070000-
EAST-CENTRAL ILLINOIS

CITY           SKY/WX    TMP DP  RH WIND       PRES   REMARKS
CHAMPAIGN      CLOUDY    84  74  71 S12       29.92F HX  91
MATTOON        LGT RAIN  74  69  85 SW8G24    29.94S
$$

ILZ079-100>102-070000-
SOUTHWEST ILLINOIS

CITY           SKY/WX    TMP DP  RH WIND       PRES   REMARKS
ALTON          PTSUNNY   77 N/A N/A SW6G13    29.89F
BELLEVILLE     CLOUDY    84  76  77 S15G21    29.89F HX  93
CAHOKIA*       LGT RAIN  75  69  81 S6        29.89F
SPARTA*        CLOUDY    84  75  74 S9        29.93F HX  91
$$

ILZ064>066-069>071-074>076-080>082-084>086-088>090-092>094-070000-
SOUTH-CENTRAL ILLINOIS

CITY           SKY/WX    TMP DP  RH WIND       PRES   REMARKS
CARBONDALE     PTSUNNY   84  74  71 S12       29.94F HX  91
MARION         PTSUNNY   84  75  74 S12       29.96F HX  92
MT. VERNON     PTSUNNY   84  72  65 S13       29.95F HX  89
SALEM*         CLOUDY    85  73  67 S10       29.93F HX  92
$$

ILZ067-068-072-073-078-083-087-091-070000-
SOUTHEAST ILLINOIS

CITY           SKY/WX    TMP DP  RH WIND       PRES   REMARKS
LAWRENCEVILLE  MOSUNNY   85  74  69 SW13      29.95F HX  92
HARRISBURG*    MOSUNNY   85  73  69 S9        29.97F HX  91
$$

ABBREVIATIONS USED IN REMARKS
   TC - TEMPERATURE IN CELSIUS
  WCI - WIND CHILL INDEX
   HX - HEAT INDEX
  VSB - VISIBILITY
$$



USA.gov is the U.S. government's official web portal to all federal, state and local government web resources and services.